Flag for Montenegro Weather past 2 weeks in Podgorica, Montenegro

Now
90 °F

Passing clouds.


Feels Like: 87 °F
Forecast: 70 / 93 °F
Wind: 6 mph from South

Location: Podgorica Titograd

Current Time: Jul 2, 2015 at 3:16:51 PM

Latest Report: Jul 2, 2015 at 2:30 PM


Visibility: N/A

Pressure: 30.09 "Hg

Humidity: 27%

Dew point: 52 °F

Location of PodgoricaLocation

Historic Weather in Podgorica — Graph

°F

Podgorica temperature yesterday

Maximum temperature yesterday: 88 °F (at 2:00 PM)
Minimum temperature yesterday: 70 °F (at 4:00 AM)
Average temperature yesterday: 80 °F

Past Weeks' High & Low Weather Summary

 TemperatureHumidityPressure
High90 °F (Jul 2, 2:00 PM)100% (Jun 21, 3:00 AM)30.15 "Hg (Jun 21, 3:00 AM)
Low59 °F (Jun 21, 3:00 AM)21% (Jun 25, 3:00 PM)29.74 "Hg (Jun 17, 6:30 PM)
Average75 °F44%29.94 "Hg
* Reported Jun 17 2:00 PM — Jul 2 2:00 PM, Podgorica, Weather by CustomWeather, © 2015

Note: Actual official high and low records may vary slightly from our data, if they occured in-between our weather recording intervals... More about our weather records

Advertising

Podgorica weather history for previous 24 hours

 ConditionsComfort  
Time TempWeatherWind HumidityBarometerVisibility
2:00 PM
Thu, Jul 2
90 °FPassing clouds.6 mph29%30.09 "HgN/A
1:30 PM88 °FPassing clouds.6 mph29%30.12 "HgN/A
1:00 PM88 °FPassing clouds.6 mph31%30.12 "HgN/A
12:30 PM86 °FPassing clouds.5 mph33%30.12 "HgN/A
12:00 PM86 °FSunny.5 mph33%30.12 "Hg10 mi
11:30 AM86 °FPassing clouds.7 mph35%30.12 "HgN/A
11:00 AM86 °FPassing clouds.8 mph33%30.15 "HgN/A
10:30 AM84 °FSunny.2 mph31%30.15 "Hg10 mi
10:00 AM84 °FPassing clouds.3 mph31%30.15 "HgN/A
9:30 AM82 °FSunny.2 mph32%30.15 "Hg10 mi
9:00 AM82 °FPassing clouds.7 mph32%30.15 "HgN/A
8:30 AM82 °FSunny.8 mph32%30.15 "Hg10 mi
8:00 AM79 °FPassing clouds.8 mph37%30.15 "HgN/A
7:30 AM79 °FPassing clouds.8 mph37%30.15 "HgN/A
7:00 AM75 °FPassing clouds.8 mph44%30.15 "HgN/A
6:00 AM70 °FClear.7 mph50%30.15 "Hg10 mi
5:30 AM68 °FClear.8 mph53%30.15 "Hg10 mi
5:00 AM70 °FClear.9 mph50%30.15 "Hg10 mi
4:30 AM70 °FClear.6 mph50%30.15 "Hg10 mi
4:00 AM72 °FClear.8 mph47%30.12 "Hg10 mi
3:30 AM73 °FPassing clouds.8 mph44%30.12 "HgN/A
3:00 AM73 °FPassing clouds.7 mph44%30.15 "HgN/A
2:30 AM75 °FClear.9 mph41%30.12 "Hg10 mi
2:00 AM77 °FPassing clouds.10 mph39%30.12 "HgN/A
1:30 AM77 °FClear.9 mph39%30.12 "Hg10 mi
1:00 AM75 °FPassing clouds.13 mph41%30.12 "HgN/A
12:30 AM77 °FClear.10 mph39%30.12 "Hg10 mi
12:00 AM75 °FClear.10 mph41%30.12 "Hg10 mi
11:00 PM
Wed, Jul 1
75 °FPassing clouds.3 mph47%30.12 "HgN/A
10:30 PM77 °FClear.2 mph47%30.12 "Hg10 mi
10:00 PM77 °FClear.2 mph47%30.12 "Hg10 mi
9:30 PM79 °FPassing clouds.1 mph48%30.09 "HgN/A
9:00 PM79 °FPassing clouds.3 mph45%30.09 "HgN/A
8:30 PM81 °FPassing clouds.1 mph42%30.09 "HgN/A
8:00 PM82 °FPassing clouds.1 mph37%30.07 "HgN/A
7:30 PM84 °FPassing clouds.2 mph35%30.07 "HgN/A
7:00 PM84 °FScattered clouds.5 mph35%30.07 "HgN/A
6:30 PM84 °FScattered clouds.8 mph37%30.04 "HgN/A
6:00 PM86 °FScattered clouds.12 mph35%30.04 "HgN/A
5:30 PM88 °FScattered clouds.6 mph29%30.04 "HgN/A
5:00 PM86 °FScattered clouds.8 mph29%30.04 "HgN/A
4:30 PM88 °FScattered clouds.9 mph25%30.04 "HgN/A
4:00 PM88 °FPassing clouds.7 mph25%30.04 "HgN/A
3:30 PM86 °FScattered clouds.9 mph29%30.04 "HgN/A
3:00 PM88 °FScattered clouds.7 mph25%30.04 "HgN/A
Weather by CustomWeather, © 2015

See weather overviewHow to use our weather pages